Location: Rowland
(34.5359°N, 79.2929°W)
Time: 13:45:05
(UTC+00:00)

SR - Pass Details

Date: 07 October 2022
Orbit: 577 x 875 km, 66.7° (Epoch: 28 November)

Event Time Altitude Azimuth Distance (km) Brightness Sun altitude
Rises 10:19:44 0° 333° (NNW) 3,261 ? -12.5°
Reaches altitude 10° 10:22:14 10° 333° (NNW) 2,283 ? -12.0°
Maximum altitude 10:27:27 90° 237° (WSW) 710 ? -10.9°
Drops below altitude 10° 10:32:09 10° 155° (SSE) 2,072 ? -9.9°
Sets 10:34:21 0° 155° (SSE) 2,938 ? -9.5°
